GW1811 Weather Reports


Display with metric or nautical units.
time (UTC)temp
F
wind
direction
speed
MPH
gust
MPH
rain 1hr
in
rain 24hr
in
rain mn
in
humidity
%
barometer
mb
20260507134535 50 298 10.0 15.0 0.00 0.00 0.00 62 1012.3
20260507134027 49 283 10.0 15.0 0.00 0.00 0.00 63 1012.3
20260507133527 48 271 10.0 15.0 0.00 0.00 0.00 63 1012.2
20260507133043 48 284 11.0 15.0 0.00 0.00 0.00 63 1012.1
20260507132525 47 262 11.0 16.0 0.00 0.00 0.00 64 1012.2
20260507132025 47 262 12.0 16.0 0.00 0.00 0.00 65 1012.1
20260507131546 46 232 11.0 15.0 0.00 0.00 0.00 65 1012.1
20260507131026 46 238 11.0 17.0 0.00 0.00 0.00 66 1012.1
20260507130523 45 225 11.0 17.0 0.00 0.00 0.00 66 1011.9
20260507130042 45 255 12.0 17.0 0.00 0.00 0.00 66 1011.9
20260507125525 45 253 12.0 17.0 0.00 0.00 0.00 67 1011.9
20260507125024 44 258 12.0 18.0 0.00 0.00 0.00 67 1011.9
20260507124540 43 231 12.0 18.0 0.00 0.00 0.00 68 1011.9
20260507124028 43 252 12.0 16.0 0.00 0.00 0.00 69 1011.8
20260507123525 42 260 10.0 15.0 0.00 0.00 0.00 70 1011.8
20260507123039 41 246 10.0 15.0 0.00 0.00 0.00 70 1011.8
20260507122525 41 254 10.0 15.0 0.00 0.00 0.00 70 1011.7
20260507122027 40 264 10.0 15.0 0.00 0.00 0.00 71 1011.7
20260507121545 40 242 11.0 15.0 0.00 0.00 0.00 71 1011.7
20260507121026 39 312 10.0 14.0 0.00 0.00 0.00 71 1011.6
20260507120527 39 243 10.0 15.0 0.00 0.00 0.00 71 1011.7
20260507120043 39 247 10.0 15.0 0.00 0.00 0.00 71 1011.7
20260507115527 39 257 10.0 17.0 0.00 0.00 0.00 71 1011.7
20260507115028 39 254 11.0 17.0 0.00 0.00 0.00 71 1011.6
20260507114542 39 254 11.0 16.0 0.00 0.00 0.00 71 1011.5
20260507114026 39 237 11.0 15.0 0.00 0.00 0.00 71 1011.5
20260507113525 38 252 11.0 15.0 0.00 0.00 0.00 71 1011.4
20260507113042 38 253 11.0 15.0 0.00 0.00 0.00 71 1011.5
20260507112526 38 241 11.0 15.0 0.00 0.00 0.00 71 1011.5
20260507112028 38 245 11.0 15.0 0.00 0.00 0.00 71 1011.4
20260507111545 38 250 11.0 17.0 0.00 0.00 0.00 71 1011.3
20260507111025 38 231 11.0 17.0 0.00 0.00 0.00 71 1011.5
20260507110525 38 236 11.0 17.0 0.00 0.00 0.00 70 1011.5
20260507110039 39 257 12.0 16.0 0.00 0.00 0.00 70 1011.5
20260507105525 39 232 10.0 16.0 0.00 0.00 0.00 70 1011.4
20260507105025 39 246 10.0 16.0 0.00 0.00 0.00 70 1011.3
20260507104536 39 249 11.0 17.0 0.00 0.00 0.00 70 1011.3
20260507104025 39 244 11.0 17.0 0.00 0.00 0.00 70 1011.3
20260507103525 39 254 12.0 16.0 0.00 0.00 0.00 70 1011.4
20260507103043 39 247 11.0 15.0 0.00 0.00 0.00 70 1011.4
20260507102525 39 241 9.0 14.0 0.00 0.00 0.00 71 1011.5
20260507102026 38 241 10.0 16.0 0.00 0.00 0.00 71 1011.4
20260507101558 38 238 10.0 16.0 0.00 0.00 0.00 72 1011.6
20260507101025 38 261 9.0 13.0 0.00 0.00 0.00 72 1011.6
20260507100524 37 239 8.0 13.0 0.00 0.00 0.00 72 1011.6
20260507100041 37 238 8.0 13.0 0.00 0.00 0.00 73 1011.5
20260507095525 37 247 9.0 13.0 0.00 0.00 0.00 74 1011.5
20260507095024 36 235 8.0 12.0 0.00 0.00 0.00 74 1011.4
20260507094546 36 232 6.0 11.0 0.00 0.00 0.00 73 1011.5
20260507094025 36 227 7.0 14.0 0.00 0.00 0.00 73 1011.6
20260507093525 36 232 7.0 14.0 0.00 0.00 0.00 73 1011.6
20260507093038 37 238 9.0 14.0 0.00 0.00 0.00 73 1011.8
20260507092532 37 226 9.0 15.0 0.00 0.00 0.00 73 1011.8
20260507092024 37 225 10.0 15.0 0.00 0.00 0.00 73 1011.7
20260507091553 37 231 10.0 16.0 0.00 0.00 0.00 73 1011.7
20260507091025 37 226 10.0 16.0 0.00 0.00 0.00 73 1011.7
20260507090525 37 238 11.0 16.0 0.00 0.00 0.00 73 1011.8
20260507090105 37 231 10.0 16.0 0.00 0.00 0.00 73 1011.9
20260507085524 37 229 10.0 16.0 0.00 0.00 0.00 74 1011.8
20260507085026 37 241 11.0 16.0 0.00 0.00 0.00 74 1011.8
20260507084541 36 242 11.0 16.0 0.00 0.00 0.00 75 1011.9
20260507084025 36 235 10.0 15.0 0.00 0.00 0.00 75 1012.0
20260507083525 36 240 10.0 14.0 0.00 0.00 0.00 75 1012.1
20260507083041 36 245 10.0 14.0 0.00 0.00 0.00 75 1012.2
20260507082525 36 232 10.0 14.0 0.00 0.00 0.00 75 1012.2
20260507082025 36 228 10.0 18.0 0.00 0.00 0.00 75 1012.3
20260507081550 36 234 10.0 18.0 0.00 0.00 0.00 75 1012.4
20260507081025 36 233 12.0 15.0 0.00 0.00 0.00 76 1012.5
20260507080525 36 227 10.0 15.0 0.00 0.00 0.00 76 1012.6
20260507080043 36 249 9.0 18.0 0.00 0.00 0.00 75 1012.8
20260507075523 37 241 11.0 18.0 0.00 0.01 0.00 75 1012.8
20260507075025 37 235 12.0 17.0 0.00 0.01 0.00 75 1012.8
20260507074540 37 243 12.0 19.0 0.00 0.01 0.00 75 1012.8
20260507074024 37 237 13.0 19.0 0.00 0.01 0.00 75 1012.9
20260507073525 37 240 13.0 22.0 0.00 0.01 0.00 75 1013.0
20260507073054 37 221 14.0 22.0 0.00 0.01 0.00 75 1013.0
20260507072525 37 239 14.0 21.0 0.00 0.01 0.00 74 1013.1
20260507072024 37 230 14.0 21.0 0.00 0.01 0.00 74 1013.2
20260507071539 37 238 14.0 22.0 0.00 0.01 0.00 74 1013.2
20260507071025 38 236 15.0 22.0 0.00 0.01 0.00 74 1013.3
20260507070524 38 232 15.0 19.0 0.00 0.01 0.00 74 1013.4
20260507070121 38 235 12.0 18.0 0.00 0.01 0.00 73 1013.4
20260507065526 38 235 12.0 19.0 0.00 0.01 0.00 73 1013.6
20260507065022 38 223 12.0 21.0 0.00 0.01 0.00 73 1013.6
20260507064547 38 224 13.0 21.0 0.00 0.01 0.00 73 1013.7
20260507064024 38 222 13.0 19.0 0.00 0.01 0.00 73 1013.8
20260507063523 38 232 13.0 19.0 0.00 0.01 0.00 73 1013.8
20260507063041 38 234 11.0 17.0 0.00 0.01 0.00 73 1014.0
20260507062525 38 227 11.0 19.0 0.00 0.01 0.00 73 1013.9
20260507062025 38 226 12.0 20.0 0.00 0.01 0.00 73 1014.0
20260507061542 38 227 14.0 20.0 0.00 0.01 0.00 73 1014.1
20260507061025 38 232 14.0 20.0 0.00 0.01 0.00 73 1014.2
20260507060525 38 213 14.0 19.0 0.00 0.01 0.00 74 1014.2
20260507060040 38 219 13.0 18.0 0.00 0.01 0.00 74 1014.2
20260507055525 38 220 11.0 18.0 0.00 0.01 0.01 74 1014.3
20260507055029 38 234 12.0 18.0 0.00 0.01 0.01 74 1014.2
20260507054543 38 220 11.0 18.0 0.00 0.01 0.01 74 1014.2
20260507054023 38 227 12.0 17.0 0.00 0.01 0.01 75 1014.2
20260507053526 37 217 10.0 17.0 0.00 0.01 0.01 75 1014.3
20260507053044 37 227 8.0 14.0 0.00 0.01 0.01 75 1014.4
20260507052524 37 216 9.0 14.0 0.00 0.01 0.01 74 1014.5
20260507052024 37 217 8.0 12.0 0.00 0.01 0.01 74 1014.5
20260507051545 37 225 7.0 11.0 0.00 0.01 0.01 74 1014.5
20260507051042 37 217 7.0 11.0 0.00 0.01 0.01 73 1014.6
20260507050525 37 211 7.0 10.0 0.00 0.01 0.01 72 1014.6
20260507050043 37 222 7.0 12.0 0.00 0.01 0.01 72 1014.6
20260507045526 37 225 7.0 12.0 0.00 0.01 0.01 72 1014.7
20260507045025 37 217 8.0 11.0 0.00 0.01 0.01 71 1014.8
20260507044546 37 205 7.0 11.0 0.00 0.01 0.01 71 1014.9
20260507044024 38 207 7.0 12.0 0.00 0.01 0.01 70 1014.8
20260507043525 38 209 7.0 12.0 0.00 0.01 0.01 70 1014.9
20260507043041 38 211 7.0 12.0 0.00 0.01 0.01 70 1014.9
20260507042526 37 212 7.0 10.0 0.00 0.01 0.01 70 1015.1
20260507042025 37 217 6.0 10.0 0.00 0.01 0.01 70 1015.0
20260507041539 37 214 6.0 10.0 0.00 0.01 0.01 69 1015.1
20260507041025 37 212 6.0 9.0 0.00 0.01 0.01 69 1015.2
20260507040525 37 214 6.0 9.0 0.00 0.01 0.01 68 1015.3
20260507040049 37 220 6.0 10.0 0.00 0.01 0.01 68 1015.3
20260507035524 38 213 7.0 10.0 0.00 0.01 0.01 67 1015.4
20260507035025 38 217 7.0 10.0 0.00 0.01 0.01 67 1015.4
20260507034546 38 216 7.0 10.0 0.00 0.01 0.01 66 1015.4
20260507034024 38 209 7.0 11.0 0.00 0.01 0.01 66 1015.4
20260507033524 38 207 6.0 11.0 0.00 0.01 0.01 65 1015.4
20260507033041 39 208 7.0 10.0 0.00 0.01 0.01 65 1015.4
20260507032523 39 221 7.0 10.0 0.00 0.01 0.01 65 1015.5
20260507032024 39 208 7.0 10.0 0.00 0.01 0.01 64 1015.5
20260507031542 39 223 7.0 10.0 0.00 0.01 0.01 64 1015.5
20260507031029 39 214 6.0 11.0 0.00 0.01 0.01 64 1015.6
20260507030525 39 219 7.0 11.0 0.00 0.01 0.01 64 1015.7
20260507030042 39 221 6.0 10.0 0.00 0.01 0.01 63 1015.7
20260507025522 39 220 6.0 9.0 0.00 0.01 0.01 63 1015.7
20260507025025 39 218 5.0 8.0 0.00 0.01 0.01 62 1015.6
20260507024539 40 223 5.0 9.0 0.00 0.01 0.01 61 1015.6
20260507024024 40 217 6.0 9.0 0.00 0.01 0.01 60 1015.5
20260507023527 41 209 5.0 9.0 0.00 0.01 0.01 59 1015.5
20260507023035 41 212 5.0 10.0 0.00 0.01 0.01 58 1015.5
20260507022523 42 198 6.0 10.0 0.00 0.01 0.01 57 1015.5
20260507022026 42 211 7.0 12.0 0.00 0.01 0.01 56 1015.6
20260507021534 43 215 7.0 12.0 0.00 0.01 0.01 54 1015.5
20260507021025 44 222 8.0 12.0 0.00 0.01 0.01 53 1015.6
20260507020526 44 235 8.0 12.0 0.00 0.01 0.01 53 1015.5
20260507020050 44 230 7.0 12.0 0.00 0.01 0.01 52 1015.5
20260507015525 45 228 7.0 14.0 0.00 0.02 0.01 51 1015.6
20260507015023 46 226 9.0 14.0 0.00 0.02 0.01 50 1015.6
20260507014553 46 221 8.0 13.0 0.00 0.02 0.01 49 1015.6
20260507014025 46 223 8.0 15.0 0.00 0.02 0.01 49 1015.7
20260507013526 47 239 10.0 17.0 0.00 0.02 0.01 48 1015.7
20260507013039 48 242 11.0 17.0 0.00 0.02 0.01 47 1015.6
20260507012528 48 231 11.0 20.0 0.00 0.02 0.01 46 1015.7
20260507012027 48 243 12.0 20.0 0.00 0.02 0.01 45 1015.5
20260507011539 49 241 11.0 18.0 0.00 0.02 0.01 44 1015.5
20260507011024 49 228 12.0 19.0 0.00 0.02 0.01 44 1015.5
20260507010525 49 246 13.0 19.0 0.00 0.02 0.01 44 1015.4
20260507010059 50 254 12.0 18.0 0.00 0.02 0.01 44 1015.4
20260507005527 50 242 14.0 18.0 0.00 0.07 0.01 44 1015.6
20260507005027 50 238 11.0 18.0 0.00 0.07 0.01 43 1015.5
20260507004544 51 245 13.0 21.0 0.00 0.07 0.01 43 1015.4
20260507004026 51 279 13.0 21.0 0.00 0.07 0.01 43 1015.5
20260507003526 51 248 12.0 19.0 0.00 0.07 0.01 43 1015.5
20260507003042 51 240 13.0 22.0 0.00 0.07 0.01 44 1015.4
20260507002527 51 225 14.0 22.0 0.00 0.07 0.01 43 1015.4
20260507002026 51 237 14.0 19.0 0.00 0.07 0.01 44 1015.5
20260507001550 51 236 10.0 16.0 0.00 0.07 0.01 45 1015.5
20260507001027 51 237 8.0 20.0 0.00 0.07 0.01 45 1015.8
20260507000526 52 225 12.0 20.0 0.00 0.07 0.01 44 1015.8
20260507000046 52 242 14.0 21.0 0.00 0.07 0.01 44 1015.7
20260506235525 52 254 15.0 21.0 0.00 0.07 0.01 43 1015.8
20260506235023 52 227 15.0 21.0 0.00 0.07 0.01 44 1015.7
20260506234543 51 247 10.0 18.0 0.00 0.07 0.01 46 1016.0
20260506234025 50 242 12.0 18.0 0.00 0.07 0.01 47 1016.1
20260506233525 50 239 10.0 19.0 0.00 0.07 0.01 46 1016.1
20260506233041 51 245 12.0 19.0 0.00 0.07 0.01 44 1016.1
20260506232524 52 243 12.0 19.0 0.00 0.07 0.01 44 1015.9
20260506232024 52 263 14.0 19.0 0.00 0.07 0.01 43 1016.0
20260506231542 53 263 13.0 21.0 0.00 0.07 0.01 43 1016.0
20260506231028 53 258 15.0 22.0 0.00 0.07 0.01 42 1016.0
20260506230523 53 277 17.0 22.0 0.00 0.07 0.01 42 1016.0
20260506230039 52 239 9.0 18.0 0.00 0.07 0.01 44 1016.0
20260506225525 50 231 7.0 16.0 0.00 0.07 0.01 45 1016.1
20260506225028 50 232 9.0 17.0 0.00 0.07 0.01 45 1016.3
20260506224538 51 245 13.0 23.0 0.00 0.07 0.01 43 1016.3
20260506224025 52 259 16.0 23.0 0.00 0.07 0.01 43 1016.1
20260506223524 52 233 8.0 15.0 0.00 0.07 0.01 43 1016.2
20260506223046 51 259 9.0 18.0 0.00 0.07 0.01 42 1016.4
20260506222527 53 210 9.0 18.0 0.00 0.07 0.01 42 1016.4
20260506222023 53 212 11.0 18.0 0.00 0.07 0.01 42 1016.3
20260506221544 53 256 12.0 18.0 0.00 0.07 0.01 43 1016.4
20260506221026 53 223 12.0 20.0 0.00 0.07 0.01 43 1016.4
20260506220524 53 224 12.0 20.0 0.00 0.07 0.01 43 1016.5
20260506220043 53 231 13.0 19.0 0.00 0.07 0.01 44 1016.7
20260506215526 52 231 12.0 18.0 0.00 0.09 0.01 43 1016.7
20260506215025 50 230 7.0 16.0 0.00 0.09 0.01 44 1016.9
20260506214540 50 232 11.0 18.0 0.00 0.09 0.01 45 1017.0
20260506214026 51 248 11.0 18.0 0.00 0.09 0.01 44 1017.0
20260506213523 51 263 11.0 18.0 0.00 0.09 0.01 43 1017.1
20260506213039 50 279 4.0 12.0 0.00 0.09 0.01 46 1017.2
20260506212527 49 269 3.0 16.0 0.00 0.09 0.01 46 1017.3
20260506212027 49 289 8.0 16.0 0.00 0.09 0.01 48 1017.3
20260506211546 49 306 10.0 14.0 0.00 0.09 0.01 47 1017.4
20260506211026 49 288 9.0 14.0 0.00 0.09 0.01 47 1017.5
20260506210529 49 309 7.0 17.0 0.00 0.09 0.01 47 1017.6
20260506210049 49 271 9.0 17.0 0.00 0.09 0.01 47 1017.6
20260506205526 49 273 13.0 17.0 0.00 0.10 0.01 46 1017.7
20260506205026 50 231 9.0 15.0 0.00 0.10 0.01 47 1017.8
20260506204542 51 220 10.0 16.0 0.00 0.10 0.01 45 1017.8
20260506204024 50 220 9.0 16.0 0.00 0.10 0.01 48 1018.0
20260506203524 50 240 9.0 15.0 0.00 0.10 0.01 47 1018.1
20260506203048 48 274 2.0 14.0 0.00 0.10 0.01 45 1018.1
20260506202527 49 207 5.0 18.0 0.00 0.10 0.01 45 1018.2
20260506202024 49 240 10.0 18.0 0.00 0.10 0.01 46 1018.4
20260506201555 48 217 8.0 13.0 0.00 0.10 0.01 46 1018.3
20260506201023 48 297 7.0 13.0 0.00 0.10 0.01 45 1018.4
20260506200523 48 273 2.0 15.0 0.00 0.10 0.01 46 1018.5
20260506200038 49 270 9.0 15.0 0.00 0.10 0.01 45 1018.5
20260506195524 48 269 10.0 15.0 0.00 0.10 0.01 48 1018.5
20260506195024 48 284 9.0 15.0 0.00 0.10 0.01 46 1018.5
20260506194549 48 297 8.0 15.0 0.00 0.10 0.01 46 1018.7
20260506194023 49 286 9.0 16.0 0.00 0.10 0.01 45 1018.6
20260506193525 48 304 6.0 16.0 0.00 0.10 0.01 47 1018.6
20260506193045 48 319 9.0 16.0 0.00 0.10 0.01 47 1018.7
20260506192527 49 309 9.0 13.0 0.00 0.10 0.01 47 1018.7
20260506192024 48 303 7.0 12.0 0.00 0.10 0.01 46 1018.8
20260506191543 48 303 8.0 13.0 0.00 0.10 0.01 48 1018.8
20260506191024 48 327 4.0 13.0 0.00 0.10 0.01 49 1018.8
20260506190527 48 326 9.0 13.0 0.00 0.10 0.01 48 1018.8
20260506190041 48 263 6.0 14.0 0.00 0.10 0.01 47 1018.9
20260506185524 47 241 5.0 16.0 0.00 0.10 0.01 47 1019.0
20260506185024 47 292 8.0 16.0 0.00 0.10 0.01 51 1019.1
20260506184548 46 56 3.0 13.0 0.00 0.10 0.01 49 1019.0
20260506184024 46 156 4.0 13.0 0.00 0.10 0.01 50 1019.1
20260506183524 46 250 5.0 11.0 0.00 0.10 0.01 52 1019.1
20260506183046 45 5 3.0 11.0 0.00 0.10 0.01 52 1019.3
20260506182526 46 296 8.0 11.0 0.00 0.10 0.01 54 1019.4
20260506182028 45 310 5.0 11.0 0.00 0.10 0.01 52 1019.6
20260506181542 45 355 2.0 14.0 0.00 0.10 0.01 51 1019.5
20260506181030 45 316 7.0 14.0 0.00 0.10 0.01 52 1019.6
20260506180526 46 259 7.0 11.0 0.00 0.10 0.01 52 1019.6
20260506180043 45 325 3.0 11.0 0.00 0.10 0.01 55 1019.6
20260506175528 44 298 3.0 12.0 0.00 0.10 0.01 56 1019.7
20260506175028 44 300 6.0 12.0 0.00 0.10 0.01 53 1019.7
20260506174541 45 309 8.0 15.0 0.00 0.10 0.01 54 1019.7
20260506174028 45 351 4.0 15.0 0.00 0.10 0.01 55 1019.7
20260506173526 44 0 1.0 11.0 0.00 0.10 0.01 54 1019.7
20260506173051 45 264 3.0 15.0 0.00 0.10 0.01 53 1019.8
20260506172524 45 43 7.0 15.0 0.00 0.10 0.01 56 1019.8
20260506172029 44 342 7.0 15.0 0.00 0.10 0.01 56 1019.8
20260506171549 44 313 5.0 12.0 0.00 0.10 0.01 56 1019.9
20260506171024 44 302 6.0 13.0 0.00 0.10 0.01 57 1019.9
20260506170527 43 16 6.0 13.0 0.00 0.10 0.01 54 1020.0
20260506170045 43 294 8.0 12.0 0.00 0.10 0.01 56 1020.0
20260506165528 44 267 7.0 12.0 0.00 0.10 0.01 57 1020.0
20260506165027 43 329 6.0 12.0 0.00 0.10 0.01 56 1020.0
20260506164543 43 15 7.0 13.0 0.00 0.10 0.01 57 1019.9
20260506164024 43 288 8.0 13.0 0.00 0.10 0.01 57 1019.9
20260506163527 42 327 6.0 13.0 0.00 0.10 0.01 57 1020.0
20260506163058 42 342 8.0 13.0 0.00 0.10 0.01 57 1019.9
20260506162527 42 292 8.0 13.0 0.00 0.10 0.01 55 1020.0
20260506162026 42 22 2.0 14.0 0.00 0.10 0.01 60 1020.0
20260506161544 42 333 8.0 14.0 0.00 0.10 0.01 62 1020.0
20260506161027 41 296 10.0 14.0 0.00 0.10 0.01 62 1019.9
20260506160527 42 328 5.0 12.0 0.00 0.10 0.01 63 1019.7
20260506160042 41 355 8.0 15.0 0.00 0.10 0.01 65 1019.8
20260506155524 41 5 7.0 15.0 0.00 0.12 0.01 63 1019.8
20260506155024 41 342 9.0 15.0 0.00 0.12 0.01 65 1019.7
20260506154540 40 14 7.0 12.0 0.00 0.12 0.01 66 1019.8
20260506154026 40 348 5.0 10.0 0.00 0.12 0.01 67 1019.9
20260506153525 40 325 5.0 10.0 0.00 0.12 0.01 69 1019.8
20260506153042 40 342 6.0 10.0 0.00 0.12 0.01 68 1019.8
20260506152528 40 10 5.0 10.0 0.00 0.12 0.01 71 1019.8
20260506152027 39 355 5.0 10.0 0.00 0.12 0.01 71 1019.9
20260506151544 39 339 4.0 10.0 0.00 0.12 0.01 72 1019.9
20260506151025 39 341 6.0 11.0 0.00 0.12 0.01 73 1019.8
20260506150526 38 360 5.0 11.0 0.00 0.12 0.01 74 1019.9
20260506150041 38 348 6.0 12.0 0.00 0.12 0.01 76 1019.8
20260506145526 38 10 8.0 12.0 0.00 0.12 0.01 76 1019.8
20260506145029 37 336 8.0 11.0 0.00 0.12 0.01 76 1019.7
20260506144541 37 345 8.0 11.0 0.00 0.12 0.01 76 1019.8
20260506144026 37 336 6.0 11.0 0.00 0.12 0.01 77 1019.7
20260506143524 37 355 8.0 11.0 0.00 0.12 0.01 78 1019.8
20260506143045 37 344 7.0 10.0 0.00 0.12 0.01 78 1019.8
20260506142525 36 5 7.0 11.0 0.00 0.12 0.01 79 1019.7
20260506142025 36 337 7.0 11.0 0.00 0.12 0.01 79 1019.7
20260506141549 35 336 8.0 11.0 0.00 0.12 0.01 79 1019.8
20260506141024 35 345 8.0 11.0 0.00 0.12 0.01 80 1019.7
20260506140526 35 326 8.0 12.0 0.00 0.12 0.01 80 1019.7
20260506140053 34 348 9.0 12.0 0.00 0.12 0.01 80 1019.7
20260506135523 34 342 9.0 12.0 0.00 0.12 0.01 81 1019.7
20260506135025 34 323 8.0 11.0 0.00 0.12 0.01 81 1019.7